Погода в Ленинском

Россия / Кировская область     58°18′55″N   47°05′18″E
темп.,
°C
ветер,
м/с
пор.,
м/с
влажн.,
%
обл.,
%
осадки,
мм/ч
давл.,
гПа
погр.,
м
9 декабря, чт
чт900:00−2сз1199100 1.7 102179
03:00−3с2398100 3.8 1022113
06:00−5с2497100 1.1 1022166
09:00−5с2496100 1.8 1022170
12:00−6ссз3596100 1.7 1022225
15:00−7ссз3796100 3.7 1023303
18:00−8ссз3795100 1.2 1024316
21:00−14ссз39955 1.2 1026165
10 декабря, пт
пт1000:00−18ссз27985 0.0 1028119
03:00−19ссз27985 0.0 1030114
06:00−19сз27985 0.0 1032117
09:00−20ссз26995 0.0 103492
12:00−15с25915 0.0 1035144
15:00−18ссз11995 0.0 10379
18:00−20ссв111008 0.0 10399
21:00−21св1110012 0.0 10409
11 декабря, сб
сб1100:00−22ссв1110012 0.0 104211
03:00−22всв1110015 0.0 104221
06:00−22всв111006 0.0 104310
09:00−22в1110012 0.0 104419
12:00−14юв12905 0.0 104384
15:00−17вюв119827 0.0 10449
18:00−19в119922 0.0 10449
21:00−20юв111005 0.0 104410
12 декабря, вс
вс1200:00−20юв11995 0.0 104524
03:00−19ююв23968 0.0 104452
06:00−20ю11985 0.0 10449
09:00−18ю239628 0.0 104443
12:00−10ю298646 0.0 1042216
15:00−14ююв229678 0.0 104221
18:00−16ю239565 0.0 104247
21:00−17ю249766 0.0 104153
13 декабря, пн
пн1300:00−16ююз269779 0.0 104089
03:00−17ююз249817 0.0 104060
06:00−17ююз239769 0.0 103946
09:00−16ююз2495100 0.0 103864
12:00−9ююз2888100 0.0 1037194
15:00−10ю2592100 0.0 103697
18:00−10ююз2889100 0.0 1035170
21:00−9ююз2989100 0.0 1034202